STARLINK-2685 (48468 NORAD) Tracking and Keplerian Element Data

This shows tracking and keplerian element data for the satellite.

Feedback or suggestion? Click here.




ElementValue
Catalog48468
NameSTARLINK-2685
Epoch Orbit1464
Epoch Day215.25002315
Epoch Year2021
RAAN170.9041
Inclination53.0523
Eccentricity0.0001795
Argument of Perigee61.4595
Mean Anonmoly206.1101
Mean Motion15.06393145
Decay Rate0.00023121
L11 48468U 21040AS 21215.25002315 .00023121 00000-0 15663-2 0 9998
L22 48468 53.0523 170.9041 0001795 61.4595 206.1101 15.06393145 14647

Live tracking and technical data element details for STARLINK-2685 (NORAD 48468). STARLINK-2685 can be tracked NOW for your location showing map with azimuth and elevation plus other details from your city location.

Track the satellite on the map from your city or location and see movement details for azimuth, elevation, latitude, longitude, range, height, and movement on the map or in text.







IsCatalogInMostPopularTable: catalog: 48468, numindb: 26
Update: records affected: 1



GetName: 48468 STARLINK-2685

Hit Count: updated at: Tue, 03 Aug 2021 21:17:31 GMT